EDT,Max TemperatureF,Mean TemperatureF,Min TemperatureF,Max Dew PointF,MeanDew PointF,Min DewpointF,Max Humidity, Mean Humidity, Min Humidity, Max Sea Level PressureIn, Mean Sea Level PressureIn, Min Sea Level PressureIn, Max VisibilityMiles, Mean VisibilityMiles, Min VisibilityMiles, Max Wind SpeedMPH, Mean Wind SpeedMPH, Max Gust SpeedMPH,PrecipitationIn, CloudCover, Events, WindDirDegrees
2013-9-1,91,82,73,78,74,71,94,82,54,30.01,29.96,29.91,10,9,2,16,8,22,1.08,3,Rain-Thunderstorm,197
2013-9-2,91,82,73,76,74,68,97,82,47,30.02,29.96,29.91,10,10,3,16,7,18,0.18,3,Rain-Thunderstorm,213
2013-9-3,90,82,75,76,74,72,96,78,59,30.02,29.97,29.93,10,10,9,12,6,,0.00,2,Rain-Thunderstorm,243
2013-9-4,89,82,75,76,74,70,94,78,62,30.10,30.05,29.99,10,10,10,15,5,,0.00,1,Rain-Thunderstorm,195
2013-9-5,91,82,75,79,73,66,94,77,57,30.12,30.07,30.02,10,10,6,12,5,16,0.02,2,Rain-Thunderstorm,203
2013-9-6,87,80,73,76,73,70,94,82,66,30.08,30.05,30.01,10,10,6,18,5,24,0.15,2,Rain-Thunderstorm,43
2013-9-7,87,79,72,73,71,70,96,76,59,30.05,30.01,29.98,10,9,3,15,8,,0.00,1,,10
2013-9-8,84,78,73,73,69,65,85,69,51,30.01,29.97,29.94,10,10,10,14,8,,0.00,1,,39
2013-9-9,87,80,72,72,70,67,91,71,55,30.09,30.04,29.98,10,8,0,14,5,,0.00,2,,71
2013-9-10,87,83,79,74,71,68,79,67,57,30.16,30.11,30.06,10,10,8,18,12,,0.00,2,Rain,80
2013-9-11,87,82,78,75,73,70,83,73,58,30.14,30.10,30.06,10,10,6,16,10,26,0.03,2,Rain-Thunderstorm,50
2013-9-12,84,78,73,75,73,71,93,81,65,30.06,30.01,29.93,10,10,6,12,6,,0.16,2,Rain-Thunderstorm,64
2013-9-13,91,82,73,73,71,63,93,73,40,29.93,29.87,29.81,10,10,10,12,6,,0.00,0,,220
2013-9-14,91,82,73,75,72,69,91,73,48,30.01,29.92,29.84,10,10,10,13,6,,0.00,2,Rain-Thunderstorm,163
2013-9-15,88,81,75,76,74,72,91,78,65,30.11,30.07,30.01,10,10,10,14,5,,0.00,3,,104
2013-9-16,87,81,75,75,73,71,90,76,61,30.12,30.08,30.03,10,10,9,13,7,,0.00,1,,120
2013-9-17,87,80,75,76,74,72,94,78,63,30.12,30.07,30.03,10,10,10,20,8,22,0.03,4,Rain,65
2013-9-18,82,77,73,74,72,70,94,83,69,30.13,30.08,30.04,10,6,1,25,16,34,2.06,7,Rain-Thunderstorm,67
2013-9-19,86,81,78,74,69,66,78,68,60,30.10,30.07,30.04,10,10,10,18,13,24,0.00,5,,85
2013-9-20,84,76,71,70,69,67,90,74,63,30.07,30.01,29.96,10,10,10,12,6,,0.00,4,,78
2013-9-21,84,78,71,71,69,68,91,75,61,29.97,29.87,29.79,10,10,10,13,4,,0.00,1,,161
2013-9-22,82,78,73,74,72,69,94,84,72,29.87,29.80,29.77,10,10,6,12,8,,0.05,3,Rain,237
2013-9-23,80,76,73,74,73,71,96,87,79,29.99,29.94,29.86,10,10,7,10,3,,0.17,6,Rain,101
2013-9-24,81,76,73,77,74,72,100,92,83,29.97,29.92,29.84,10,7,1,14,4,,0.97,7,Rain,323
2013-9-25,84,78,73,74,73,71,100,88,67,29.85,29.81,29.77,10,8,1,16,7,25,0.01,6,Rain,245
2013-9-26,80,76,71,75,72,68,100,90,70,29.92,29.83,29.77,10,7,0,17,6,22,0.04,6,Fog-Rain,300
2013-9-27,82,76,71,72,69,66,94,80,69,30.01,29.94,29.88,10,10,7,23,12,30,0.07,7,Rain,9
2013-9-28,79,74,71,72,70,66,100,86,69,30.09,30.03,29.97,10,6,2,22,15,29,1.26,8,Rain,40
2013-9-29,81,76,71,72,69,68,94,79,69,30.04,30.01,29.97,10,8,0,20,12,25,0.89,6,Fog-Rain,23
2013-9-30,81,78,73,70,68,63,84,75,60,30.07,30.00,29.95,10,10,10,16,10,22,0.00,4,,42